DateTimeUTC,F1_A11,F1_S11,BsB_S11,BsG_S11,BsR_S11,BbsB_S11,BbsG_S11,BbsR_S11,BaB_A11,BaG_A11,BaR_A11,Tu_S11,T_S11,Uu_S11,U_S11,P_S11,T1_A11
2021-06-28T15:00:00Z,00000200,20000000,,,,,,,0000.21,-000.20,0000.06,19.6,26.2,11.3,07.6,0668.0,31.2
2021-06-28T15:01:00Z,00000200,20000000,,,,,,,-000.49,0000.16,0000.10,19.6,26.2,11.3,07.6,0668.0,31.2
2021-06-28T15:02:00Z,00000200,20000000,,,,,,,0000.17,0000.05,-000.15,19.6,26.2,11.1,07.4,0668.0,31.2
2021-06-28T15:03:00Z,00000200,60000000,,,,,,,0000.32,0000.12,0000.29,19.6,26.2,11.0,07.4,0668.0,31.2
2021-06-28T15:04:00Z,00000200,40000000,0001.91,0000.58,0000.21,0000.34,0000.42,0000.26,0000.21,0000.02,0000.07,19.7,26.0,11.4,07.8,0668.9,31.2
2021-06-28T15:05:00Z,00000200,00000000,0001.43,0000.59,0000.78,0000.88,0000.27,0000.10,0000.27,0000.23,0000.44,19.8,26.0,11.4,07.8,0669.0,31.2
2021-06-28T15:06:00Z,00000200,00000000,0002.16,0000.73,0000.10,0000.04,0000.28,0000.13,0000.33,0000.33,0000.05,19.8,26.0,11.6,07.9,0669.0,31.2
2021-06-28T15:07:00Z,00000200,00000000,0000.98,0000.55,0000.36,0000.31,0000.29,0000.25,0000.05,0000.09,0000.00,19.8,26.0,11.6,08.0,0669.0,31.2
2021-06-28T15:08:00Z,00000200,00000000,0000.82,0000.73,0000.31,0000.20,0000.25,-000.02,-000.02,0000.13,0000.30,19.8,26.0,11.6,08.0,0668.9,31.3
2021-06-28T15:09:00Z,00000200,00000000,0001.25,0000.60,0000.33,-000.07,0000.27,0000.25,0000.06,0000.20,-000.07,19.8,26.0,11.5,07.9,0668.9,31.3
2021-06-28T15:10:00Z,00000200,00000000,0001.58,0001.06,0000.29,-000.15,0000.45,0000.29,0000.18,-000.00,-000.16,19.8,26.0,11.5,07.9,0668.9,31.2
2021-06-28T15:11:00Z,00000200,00000000,0000.93,0000.74,0000.27,0000.39,0000.34,0000.28,0000.29,0000.41,0000.50,19.8,26.0,11.6,07.9,0669.0,31.2
2021-06-28T15:12:00Z,00000200,00000000,0000.92,0000.65,0000.30,-000.01,0000.28,0000.31,0000.22,0000.06,-000.33,19.8,26.0,11.6,08.0,0669.0,31.3
2021-06-28T15:13:00Z,00000200,00000000,0001.59,0000.74,0000.44,0000.74,0000.34,0000.25,0000.18,0000.03,0000.39,19.8,26.0,11.5,07.9,0668.9,31.3
2021-06-28T15:14:00Z,00000200,00000000,0001.21,0000.71,0000.32,0000.20,0000.42,-000.04,0000.43,0000.36,0000.20,19.8,26.0,11.5,07.9,0669.0,31.2
2021-06-28T15:15:00Z,00000200,00000000,0002.02,0000.74,0000.13,-000.03,0000.27,-000.13,0000.04,0000.09,0000.35,19.8,26.0,11.7,08.0,0669.0,31.3
2021-06-28T15:16:00Z,00000200,00000000,0001.06,0000.67,0000.53,0000.43,0000.15,0000.20,0000.41,0000.12,0000.09,19.8,26.0,11.7,08.0,0669.0,31.2
2021-06-28T15:17:00Z,00000200,00000000,0001.27,0000.76,0000.51,0000.53,0000.32,-000.15,-000.10,-000.13,-000.16,19.8,26.0,11.6,08.0,0669.0,31.2
2021-06-28T15:18:00Z,00000200,00000000,0001.05,0001.02,0000.71,0000.24,0000.27,0000.55,0000.25,0000.36,0000.35,19.8,26.0,11.6,08.0,0668.9,31.2
2021-06-28T15:19:00Z,00000200,00000000,0001.06,0000.71,0000.58,0000.20,0000.29,-000.01,-000.12,0000.25,-000.08,19.8,26.0,11.7,08.0,0668.9,31.3
2021-06-28T15:20:00Z,00000200,00000000,0000.86,0000.72,0000.52,0000.18,0000.32,-000.05,0000.14,0000.07,0000.15,19.8,26.0,11.6,07.9,0668.8,31.3
2021-06-28T15:21:00Z,00000200,00000000,0000.97,0000.49,0000.18,0000.73,0000.20,0000.45,0000.57,0000.43,0000.34,19.8,26.0,11.6,08.0,0668.9,31.2
2021-06-28T15:22:00Z,00000200,00000000,0001.44,0001.00,0000.36,0000.91,0000.56,0000.55,0000.06,-000.29,-000.03,19.8,26.0,11.7,08.0,0668.8,31.3
2021-06-28T15:23:00Z,00000200,00000000,0000.74,0001.03,0000.53,0000.53,0000.46,0000.20,0000.29,0000.68,0000.26,19.8,26.0,11.6,08.0,0668.8,31.2
2021-06-28T15:24:00Z,00000200,00000000,0001.01,0001.05,0000.36,-000.00,0000.32,0000.17,0000.11,-000.13,-000.06,19.8,26.0,11.8,08.1,0668.8,31.2
2021-06-28T15:25:00Z,00000200,00000000,0001.15,0001.01,0000.35,0000.88,0000.42,0000.20,0000.38,0000.13,0000.36,19.8,26.0,11.8,08.1,0668.8,31.2
2021-06-28T15:26:00Z,00000200,00000000,0000.97,0000.73,0000.40,0000.46,0000.40,-000.00,0000.06,0000.62,-000.10,19.8,26.0,11.7,08.0,0668.7,31.2
2021-06-28T15:27:00Z,00000200,00000000,0000.72,0000.47,0000.48,0000.35,0000.24,0000.26,0000.16,0000.00,0000.52,19.8,26.0,11.8,08.1,0668.9,31.3
2021-06-28T15:28:00Z,00000200,00000000,0001.33,0000.79,0000.15,0000.06,0000.53,0000.18,0000.42,-000.10,-000.08,19.8,26.0,11.8,08.2,0668.8,31.2
2021-06-28T15:29:00Z,00000200,00000000,0001.19,0001.03,0000.36,0000.18,0000.19,0000.28,0000.02,0000.42,-000.05,19.8,26.0,12.0,08.2,0668.7,31.2
2021-06-28T15:30:00Z,00000200,00000000,0001.10,0000.64,0000.47,0000.55,0000.59,-000.01,0000.05,0000.13,0000.25,19.8,26.0,11.7,08.1,0668.7,31.2
2021-06-28T15:31:00Z,00000200,00000000,0001.57,0000.68,0000.33,0000.29,0000.29,0000.32,0000.25,0000.02,0000.26,19.8,26.0,12.1,08.3,0668.8,31.3
2021-06-28T15:32:00Z,00000200,00000000,0001.50,0001.10,0000.72,0000.61,-000.06,0000.32,0000.25,0000.29,-000.19,19.9,26.0,11.9,08.2,0668.7,31.2
2021-06-28T15:33:00Z,00000200,00000000,0001.23,0000.51,0000.27,0000.22,0000.58,0000.15,-000.05,0000.44,0000.27,19.9,26.0,11.8,08.1,0668.8,31.3
2021-06-28T15:34:00Z,00000200,00000000,0001.47,0000.94,0000.39,-000.29,0000.51,-000.16,0000.28,0000.12,0000.41,19.9,26.0,12.1,08.3,0668.7,31.2
2021-06-28T15:35:00Z,00000200,00000000,0000.94,0000.74,0000.49,-000.00,0000.32,0000.12,0000.27,-000.10,-000.25,19.9,26.0,11.7,08.1,0668.6,31.2
2021-06-28T15:36:00Z,00000200,00000000,0001.42,0000.64,0000.35,0000.21,0000.52,0000.12,0000.06,0000.48,0000.40,19.9,26.0,11.6,08.0,0668.6,31.3
2021-06-28T15:37:00Z,00000200,00000000,0001.79,0001.36,0000.09,0000.91,0000.09,-000.01,0000.05,-000.13,-000.05,19.9,26.0,11.7,08.1,0668.8,31.3
2021-06-28T15:38:00Z,00000200,00000000,0001.54,0000.86,0000.21,0001.01,0000.32,0000.19,0000.33,-000.16,0000.14,19.9,26.0,11.7,08.1,0668.7,31.2
2021-06-28T15:39:00Z,00000200,00000000,0001.73,0000.73,0000.12,0000.50,0000.36,-000.13,0000.32,0000.45,-000.03,19.9,26.0,11.7,08.1,0668.7,31.2
2021-06-28T15:40:00Z,00000200,00000000,0001.75,0000.91,0000.26,0000.67,0000.15,0000.11,-000.07,0000.10,0000.26,19.9,26.0,11.7,08.1,0668.7,31.2
2021-06-28T15:41:00Z,00000200,00000000,0000.71,0000.59,0000.38,0000.14,0000.48,0000.04,0000.27,0000.21,0000.29,19.9,26.1,11.6,08.0,0668.7,31.2
2021-06-28T15:42:00Z,00000200,00000000,0001.50,0000.45,0000.44,0000.51,0000.04,0000.35,0000.05,0000.18,0000.07,19.9,26.1,11.6,08.0,0668.7,31.3
2021-06-28T15:43:00Z,00000200,00000000,0001.62,0000.59,0000.57,0000.43,0000.35,0000.36,0000.10,0000.09,-000.18,19.9,26.1,11.7,08.1,0668.7,31.3
2021-06-28T15:44:00Z,00000200,00000000,0001.32,0000.57,0000.41,0000.65,0000.35,-000.09,0000.33,0000.36,0000.49,19.9,26.0,11.8,08.2,0668.8,31.2
2021-06-28T15:45:00Z,00000200,00000000,0000.89,0000.78,0000.37,0000.50,0000.38,0000.02,0000.02,-000.27,-000.18,19.9,26.1,11.7,08.1,0668.7,31.3
2021-06-28T15:46:00Z,00000200,00000000,0001.63,0000.85,0000.75,0000.17,0000.40,0000.21,0000.38,0000.35,0000.45,19.9,26.1,11.6,08.1,0668.8,31.2
2021-06-28T15:47:00Z,00000200,00000000,0001.42,0000.58,0000.20,0000.58,0000.51,0000.05,0000.02,0000.23,0000.12,19.9,26.1,11.8,08.1,0668.7,31.2
2021-06-28T15:48:00Z,00000200,00000000,0001.12,0000.95,0000.38,-000.42,0000.18,-000.10,0000.41,0000.35,0000.25,20.0,26.1,11.9,08.2,0668.8,31.3
2021-06-28T15:49:00Z,00000200,00000000,0001.34,0001.06,0000.69,0000.55,0000.34,0000.50,0000.31,0000.30,-000.21,19.9,26.1,11.8,08.2,0668.7,31.3
2021-06-28T15:50:00Z,00000200,00000000,0001.53,0000.46,0000.59,-000.14,0000.39,0000.17,0000.02,-000.26,0000.42,19.9,26.1,11.9,08.3,0668.8,31.2
2021-06-28T15:51:00Z,00000200,00000000,0001.43,0000.93,0000.18,0000.61,0000.30,0000.14,0000.28,0000.42,0000.22,20.0,26.1,12.1,08.4,0668.7,31.2
2021-06-28T15:52:00Z,00000200,00000000,0001.13,0000.47,0000.39,0000.44,0000.34,0000.14,0000.13,0000.15,-000.05,20.0,26.1,12.2,08.4,0668.7,31.3
2021-06-28T15:53:00Z,00000200,00000000,0001.40,0001.02,0000.15,0000.06,0000.32,0000.35,0000.38,0000.15,0000.15,20.0,26.1,12.2,08.5,0668.8,31.3
2021-06-28T15:54:00Z,00000200,00000000,0000.97,0000.67,0000.42,0000.52,0000.61,0000.35,-000.03,0000.33,0000.38,20.0,26.1,12.2,08.4,0668.6,31.3
2021-06-28T15:55:00Z,00000200,00000000,0001.44,0000.55,0000.88,0000.31,0000.28,0000.59,0000.35,0000.07,-000.20,20.0,26.1,12.0,08.3,0668.6,31.3
2021-06-28T15:56:00Z,00000200,00000000,0001.54,0000.75,0000.36,0000.24,0000.34,-000.02,-000.19,0000.05,0000.24,20.0,26.1,12.1,08.3,0668.6,31.3
2021-06-28T15:57:00Z,00000200,40000000,,,,,,,0000.24,-000.02,-000.08,20.1,26.1,12.2,08.5,0668.5,31.2
2021-06-28T15:58:00Z,00000200,60000000,,,,,,,-000.07,-000.20,-000.07,19.9,26.2,11.9,08.1,0667.5,31.2
2021-06-28T15:59:00Z,00000200,20000000,,,,,,,-000.10,-000.05,0000.34,19.9,26.3,11.7,08.0,0667.5,31.2
